This is the latest recevied weather packets stored in our database for station/object N8QQQ. If no packets are shown the sender has not sent any weather packets the latest 10 day(s).
| Time | Temp. | Humidity | Pressure | Rain* | Wind** | Luminosity | Snow |
|---|---|---|---|---|---|---|---|
| 1778188771 | 7.22° C | 38% | 1008.3 hPa | 0 mm | - | 77 W/m² | - |
| 1778188467 | 7.78° C | 37% | 1008.4 hPa | 0 mm | - | 55 W/m² | - |
| 1778188164 | 7.78° C | 37% | 1008.2 hPa | 0 mm | - | 90 W/m² | - |
| 1778187861 | 8.33° C | 36% | 1008.3 hPa | 0 mm | - | 113 W/m² | - |
| 1778187558 | 7.78° C | 36% | 1008.1 hPa | 0 mm | - | 130 W/m² | - |
| 1778187255 | 7.78° C | 36% | 1008.3 hPa | 0 mm | - | 105 W/m² | - |
| 1778186951 | 8.33° C | 36% | 1008.3 hPa | 0 mm | - | 122 W/m² | - |
| 1778186647 | 8.33° C | 35% | 1008.3 hPa | 0 mm | - | 139 W/m² | - |
| 1778186345 | 8.89° C | 34% | 1008.2 hPa | 0 mm | - | 165 W/m² | - |
| 1778186043 | 8.33° C | 36% | 1008.2 hPa | 0 mm | - | 204 W/m² | - |
| 1778185739 | 8.33° C | 37% | 1008.3 hPa | 0 mm | - | 150 W/m² | - |
| 1778185436 | 7.78° C | 38% | 1008.3 hPa | 0 mm | - | 155 W/m² | - |
| 1778185131 | 7.78° C | 38% | 1008.4 hPa | 0 mm | - | 152 W/m² | - |
| 1778184826 | 7.22° C | 42% | 1008.3 hPa | 0 mm | - | 73 W/m² | - |
| 1778184523 | 7.22° C | 47% | 1008.5 hPa | 0 mm | - | 79 W/m² | - |
| 1778184219 | 7.22° C | 47% | 1008.4 hPa | 0 mm | - | 112 W/m² | - |
| 1778183915 | 7.22° C | 51% | 1008.5 hPa | 0 mm | - | 141 W/m² | - |
| 1778183613 | 7.22° C | 49% | 1008.4 hPa | 0 mm | - | 101 W/m² | - |
| 1778183310 | 7.78° C | 53% | 1008.5 hPa | 0 mm | - | 149 W/m² | - |
| 1778183006 | 7.22° C | 55% | 1008.7 hPa | 0 mm | - | 142 W/m² | - |
| 1778182703 | 6.67° C | 58% | 1008.9 hPa | 0 mm | - | 481 W/m² | - |
| 1778182400 | 6.11° C | 59% | 1009 hPa | 0 mm | - | 147 W/m² | - |
| 1778182095 | 6.11° C | 61% | 1008.8 hPa | 0 mm | - | 126 W/m² | - |
| 1778181793 | 5.56° C | 62% | 1009 hPa | 0 mm | - | 99 W/m² | - |
| 1778181489 | 6.11° C | 60% | 1009.1 hPa | 0 mm | - | 126 W/m² | - |
* Rain latest hour (hover to see other rain measurements)
** Current wind speed in m/s (hover to see current wind gust speed)